GW4812 Weather Reports


Display with metric or nautical units.
time (UTC)temp
F
wind
direction
speed
MPH
gust
MPH
rain 1hr
in
rain 24hr
in
rain mn
in
humidity
%
barometer
mb
20260502164053 56 144 1.0 4.0 0.00 0.00 0.00 48 1012.0
20260502163552 56 329 1.0 2.0 0.00 0.00 0.00 44 1012.0
20260502163052 56 206 0.0 2.0 0.00 0.00 0.00 49 1012.0
20260502162553 56 166 1.0 2.0 0.00 0.00 0.00 47 1012.0
20260502162053 56 204 3.0 6.0 0.00 0.00 0.00 47 1012.0
20260502161552 56 160 2.0 4.0 0.00 0.00 0.00 48 1012.0
20260502161052 55 220 0.0 1.0 0.00 0.00 0.00 50 1012.0
20260502160552 55 251 2.0 3.0 0.00 0.00 0.00 49 1012.0
20260502152053 53 290 0.0 2.0 0.00 0.00 0.00 55 1012.0
20260502151553 53 342 1.0 3.0 0.00 0.00 0.00 55 1012.0
20260502151053 53 329 3.0 4.0 0.00 0.00 0.00 57 1012.0
20260502150552 52 263 1.0 2.0 0.00 0.00 0.00 58 1012.0
20260502130552 50 136 1.0 2.0 0.00 0.00 0.00 77 1012.0
20260502123552 50 303 1.0 2.0 0.00 0.00 0.00 80 1012.0
20260502123053 50 100 1.0 2.0 0.00 0.00 0.00 80 1012.0
20260502122552 50 62 1.0 2.0 0.00 0.00 0.00 82 1012.0
20260502122053 50 231 0.0 1.0 0.00 0.00 0.00 83 1012.0
20260502121552 50 269 1.0 2.0 0.00 0.00 0.00 84 1012.0
20260502121052 49 244 1.0 2.0 0.00 0.00 0.00 84 1012.0
20260502120552 49 236 1.0 2.0 0.00 0.00 0.00 85 1012.0
20260502115553 49 200 0.0 0.0 0.00 0.00 0.00 85 1012.0
20260502115053 49 249 0.0 1.0 0.00 0.00 0.00 85 1012.0
20260502114552 48 249 2.0 2.0 0.00 0.00 0.00 86 1012.0
20260502114053 48 235 0.0 1.0 0.00 0.00 0.00 87 1012.0
20260502113553 48 244 1.0 1.0 0.00 0.00 0.00 87 1012.0
20260502113053 48 285 1.0 2.0 0.00 0.00 0.00 87 1012.0
20260502112553 47 265 0.0 1.0 0.00 0.00 0.00 88 1012.0
20260502112052 47 310 0.0 0.0 0.00 0.00 0.00 89 1012.0
20260502111552 47 208 0.0 0.0 0.00 0.00 0.00 90 1012.0
20260502111052 47 331 0.0 0.0 0.00 0.00 0.00 91 1012.0
20260502110553 47 291 1.0 2.0 0.00 0.00 0.00 91 1012.0
20260502110053 46 261 1.0 1.0 0.00 0.00 0.00 92 1012.0
20260502105552 46 271 0.0 0.0 0.00 0.00 0.00 92 1012.0
20260502105052 46 223 1.0 1.0 0.00 0.00 0.00 93 1012.0
20260502104553 46 250 1.0 1.0 0.00 0.00 0.00 93 1012.0
20260502104052 45 222 1.0 1.0 0.00 0.00 0.00 93 1012.0
20260502103552 45 261 0.0 0.0 0.00 0.00 0.00 92 1012.0
20260502103053 45 212 0.0 1.0 0.00 0.00 0.00 92 1012.0
20260502102552 45 0 0.0 0.0 0.00 0.00 0.00 92 1012.0
20260502102052 45 239 0.0 1.0 0.00 0.00 0.00 92 1012.0
20260502101552 46 337 0.0 0.0 0.00 0.00 0.00 92 1012.0
20260502101052 46 286 0.0 0.0 0.00 0.00 0.00 92 1012.0
20260502100552 46 276 1.0 1.0 0.00 0.00 0.00 91 1012.0
20260502091052 49 0 0.0 0.0 0.00 0.00 0.00 87 1011.0
20260502090552 49 180 0.0 0.0 0.00 0.00 0.00 87 1011.0
20260502071053 50 0 0.0 0.0 0.00 0.00 0.00 81 1011.0
20260502070552 50 0 0.0 0.0 0.00 0.00 0.00 80 1011.0
20260502070053 50 240 1.0 2.0 0.00 0.00 0.00 79 1011.0
20260502065552 50 254 1.0 2.0 0.00 0.00 0.00 80 1011.0
20260502065052 51 0 0.0 0.0 0.00 0.00 0.00 80 1011.0
20260502064552 51 0 0.0 0.0 0.00 0.00 0.00 78 1011.0
20260502064052 51 0 0.0 0.0 0.00 0.00 0.00 78 1011.0
20260502063553 51 237 0.0 0.0 0.00 0.00 0.00 77 1011.0
20260502063052 51 0 0.0 0.0 0.00 0.00 0.00 78 1011.0
20260502062552 52 262 1.0 2.0 0.00 0.00 0.00 77 1012.0
20260502062052 52 0 0.0 0.0 0.00 0.00 0.00 74 1011.0
20260502061552 52 0 0.0 0.0 0.00 0.00 0.00 73 1012.0
20260502061052 52 0 0.0 0.0 0.00 0.00 0.00 70 1012.0
20260502060552 52 233 1.0 2.0 0.00 0.00 0.00 69 1012.0
20260502060053 52 230 1.0 1.0 0.00 0.00 0.00 69 1012.0
20260502055552 51 226 1.0 1.0 0.00 0.00 0.00 69 1012.0
20260502055052 51 226 0.0 1.0 0.00 0.00 0.00 71 1012.0
20260502054552 51 0 0.0 0.0 0.00 0.00 0.00 71 1012.0
20260502054052 51 220 0.0 1.0 0.00 0.00 0.00 72 1012.0
20260502053552 51 0 0.0 0.0 0.00 0.00 0.00 72 1012.0
20260502053052 51 246 0.0 0.0 0.00 0.00 0.00 74 1012.0
20260502052552 51 231 1.0 2.0 0.00 0.00 0.00 72 1012.0
20260502052053 51 281 1.0 1.0 0.00 0.00 0.00 74 1012.0
20260502051552 51 213 0.0 0.0 0.00 0.00 0.00 75 1012.0
20260502051052 51 237 1.0 2.0 0.00 0.00 0.00 73 1012.0
20260502050553 51 255 1.0 2.0 0.00 0.00 0.00 73 1012.0
20260502050053 51 0 0.0 0.0 0.00 0.00 0.00 74 1012.0
20260502045552 51 277 1.0 1.0 0.00 0.00 0.00 75 1012.0
20260502045052 51 210 0.0 1.0 0.00 0.00 0.00 76 1012.0
20260502044553 51 0 0.0 0.0 0.00 0.00 0.00 76 1012.0
20260502044052 51 272 0.0 1.0 0.00 0.00 0.00 76 1012.0
20260502043552 51 278 0.0 1.0 0.00 0.00 0.00 76 1012.0
20260502043052 51 267 1.0 1.0 0.00 0.00 0.00 76 1012.0
20260502042553 51 0 0.0 0.0 0.00 0.00 0.00 75 1012.0
20260502042052 51 212 0.0 1.0 0.00 0.00 0.00 75 1012.0
20260502041552 52 0 0.0 0.0 0.00 0.00 0.00 75 1012.0
20260502041052 52 259 0.0 1.0 0.00 0.00 0.00 74 1012.0
20260502040552 52 265 0.0 1.0 0.00 0.00 0.00 74 1012.0
20260502040053 52 200 0.0 0.0 0.00 0.00 0.00 73 1012.0
20260502035552 52 0 0.0 0.0 0.00 0.00 0.00 74 1012.0
20260502035052 52 257 0.0 1.0 0.00 0.00 0.00 74 1012.0
20260502034553 52 253 0.0 0.0 0.00 0.00 0.00 74 1012.0
20260502034053 52 273 1.0 2.0 0.00 0.00 0.00 74 1012.0
20260502033552 52 178 0.0 0.0 0.00 0.00 0.00 73 1012.0
20260502033052 52 268 0.0 1.0 0.00 0.00 0.00 73 1012.0
20260502032553 52 0 0.0 0.0 0.00 0.00 0.00 73 1012.0
20260502032052 52 0 0.0 0.0 0.00 0.00 0.00 73 1012.0
20260502031553 53 264 1.0 1.0 0.00 0.00 0.00 72 1012.0
20260502031053 53 227 0.0 1.0 0.00 0.00 0.00 73 1012.0
20260502030554 52 255 0.0 0.0 0.00 0.00 0.00 72 1012.0
20260502030052 52 242 1.0 1.0 0.00 0.00 0.00 72 1012.0
20260502025552 52 222 1.0 2.0 0.00 0.00 0.00 73 1012.0
20260502025052 52 273 1.0 1.0 0.00 0.00 0.00 73 1012.0
20260502024552 52 215 0.0 1.0 0.00 0.00 0.00 75 1012.0
20260502024052 52 229 1.0 2.0 0.00 0.00 0.00 75 1012.0
20260502023552 52 275 1.0 2.0 0.00 0.00 0.00 75 1012.0
20260502023052 52 309 0.0 1.0 0.00 0.00 0.00 74 1012.0
20260502022553 52 246 0.0 1.0 0.00 0.00 0.00 74 1012.0
20260502022053 51 284 0.0 0.0 0.00 0.00 0.00 74 1012.0
20260502021552 51 240 0.0 1.0 0.00 0.00 0.00 74 1012.0
20260502021052 51 249 0.0 1.0 0.00 0.00 0.00 74 1012.0
20260502020552 51 230 0.0 1.0 0.00 0.00 0.00 74 1012.0
20260502020052 51 245 0.0 2.0 0.00 0.00 0.00 74 1012.0
20260502015552 51 38 0.0 1.0 0.00 0.00 0.00 73 1012.0
20260502015053 51 198 0.0 1.0 0.00 0.00 0.00 72 1012.0
20260502014552 51 263 1.0 2.0 0.00 0.00 0.00 72 1012.0
20260502014052 51 266 0.0 1.0 0.00 0.00 0.00 72 1012.0
20260502013552 51 273 1.0 2.0 0.00 0.00 0.00 72 1012.0
20260502013054 51 263 0.0 1.0 0.00 0.00 0.00 72 1012.0
20260502012552 51 262 0.0 0.0 0.00 0.00 0.00 72 1012.0
20260502012053 51 234 0.0 1.0 0.00 0.00 0.00 71 1012.0
20260502011553 52 234 0.0 1.0 0.00 0.00 0.00 70 1012.0
20260502011053 52 232 0.0 1.0 0.00 0.00 0.00 70 1011.0
20260502010552 52 281 0.0 1.0 0.00 0.00 0.00 70 1011.0
20260502010052 53 265 0.0 1.0 0.00 0.00 0.00 69 1011.0
20260502005553 53 214 0.0 1.0 0.00 0.00 0.00 68 1011.0
20260502005052 54 0 0.0 0.0 0.00 0.00 0.00 66 1011.0
20260502004553 54 212 0.0 1.0 0.00 0.00 0.00 65 1011.0
20260502004053 55 271 0.0 2.0 0.00 0.00 0.00 64 1011.0
20260502003553 55 0 0.0 0.0 0.00 0.00 0.00 63 1011.0
20260502003052 56 0 0.0 0.0 0.00 0.00 0.00 61 1011.0
20260502002552 56 0 0.0 0.0 0.00 0.00 0.00 60 1011.0
20260502002053 57 278 0.0 1.0 0.00 0.00 0.00 59 1011.0
20260502001552 57 0 0.0 0.0 0.00 0.00 0.00 58 1011.0
20260502001052 58 0 0.0 0.0 0.00 0.00 0.00 56 1011.0
20260502000552 58 0 0.0 0.0 0.00 0.00 0.00 55 1011.0
20260502000053 58 236 0.0 0.0 0.00 0.00 0.00 54 1011.0
20260501235552 59 0 0.0 0.0 0.00 0.00 0.00 53 1011.0
20260501235052 59 0 0.0 0.0 0.00 0.00 0.00 52 1011.0
20260501234552 59 183 0.0 0.0 0.00 0.00 0.00 50 1011.0
20260501234052 60 0 0.0 0.0 0.00 0.00 0.00 49 1011.0
20260501233553 60 0 0.0 0.0 0.00 0.00 0.00 48 1010.0
20260501233053 60 0 0.0 0.0 0.00 0.00 0.00 47 1010.0
20260501232552 60 248 0.0 0.0 0.00 0.00 0.00 47 1010.0
20260501232052 60 212 1.0 2.0 0.00 0.00 0.00 47 1010.0
20260501231552 60 197 0.0 1.0 0.00 0.00 0.00 46 1010.0
20260501231052 60 224 0.0 0.0 0.00 0.00 0.00 46 1010.0
20260501230553 60 211 0.0 1.0 0.00 0.00 0.00 46 1010.0
20260501230052 61 229 0.0 1.0 0.00 0.00 0.00 46 1010.0
20260501225552 61 275 0.0 2.0 0.00 0.00 0.00 46 1010.0
20260501225052 61 147 1.0 2.0 0.00 0.00 0.00 45 1010.0
20260501224553 62 244 0.0 1.0 0.00 0.00 0.00 45 1010.0
20260501224052 62 243 1.0 1.0 0.00 0.00 0.00 44 1010.0
20260501223552 62 300 0.0 1.0 0.00 0.00 0.00 45 1010.0
20260501223052 62 329 0.0 1.0 0.00 0.00 0.00 44 1010.0
20260501222552 63 188 2.0 5.0 0.00 0.00 0.00 42 1010.0
20260501222052 62 195 0.0 2.0 0.00 0.00 0.00 44 1010.0
20260501221552 62 193 1.0 2.0 0.00 0.00 0.00 44 1010.0
20260501221052 63 242 1.0 2.0 0.00 0.00 0.00 43 1010.0
20260501220552 63 0 0.0 0.0 0.00 0.00 0.00 43 1010.0
20260501220053 63 268 0.0 2.0 0.00 0.00 0.00 41 1010.0
20260501215553 63 261 1.0 4.0 0.00 0.00 0.00 45 1010.0
20260501215053 62 94 0.0 1.0 0.00 0.00 0.00 44 1010.0
20260501214552 63 291 0.0 2.0 0.00 0.00 0.00 43 1010.0
20260501214053 63 187 1.0 3.0 0.00 0.00 0.00 44 1010.0
20260501213553 64 303 2.0 3.0 0.00 0.00 0.00 42 1010.0
20260501213052 64 346 1.0 2.0 0.00 0.00 0.00 41 1010.0
20260501212553 64 278 1.0 3.0 0.00 0.00 0.00 41 1010.0
20260501212052 64 161 2.0 5.0 0.00 0.00 0.00 43 1010.0
20260501211552 65 204 3.0 4.0 0.00 0.00 0.00 43 1010.0
20260501211053 65 283 2.0 3.0 0.00 0.00 0.00 41 1010.0
20260501210553 66 208 2.0 4.0 0.00 0.00 0.00 41 1010.0
20260501210052 65 184 1.0 5.0 0.00 0.00 0.00 43 1010.0
20260501205553 65 305 2.0 4.0 0.00 0.00 0.00 41 1010.0
20260501205053 65 235 2.0 6.0 0.00 0.00 0.00 41 1010.0
20260501204553 65 314 1.0 3.0 0.00 0.00 0.00 43 1010.0
20260501204052 64 359 2.0 4.0 0.00 0.00 0.00 43 1010.0
20260501203552 64 24 0.0 1.0 0.00 0.00 0.00 46 1010.0
20260501203052 64 132 3.0 5.0 0.00 0.00 0.00 44 1010.0
20260501202552 64 1 1.0 2.0 0.00 0.00 0.00 44 1010.0
20260501202053 64 280 2.0 4.0 0.00 0.00 0.00 43 1010.0
20260501201553 64 28 1.0 2.0 0.00 0.00 0.00 45 1010.0
20260501201052 64 4 2.0 3.0 0.00 0.00 0.00 44 1010.0
20260501200552 65 245 2.0 5.0 0.00 0.00 0.00 44 1011.0
20260501200052 64 2 1.0 4.0 0.00 0.00 0.00 44 1010.0
20260501195553 64 199 0.0 2.0 0.00 0.00 0.00 47 1010.0
20260501195052 64 201 2.0 3.0 0.00 0.00 0.00 45 1011.0
20260501194552 64 224 2.0 3.0 0.00 0.00 0.00 45 1011.0
20260501194052 63 322 1.0 3.0 0.00 0.00 0.00 47 1011.0
20260501193552 63 136 2.0 6.0 0.00 0.00 0.00 46 1011.0
20260501193057 63 200 1.0 4.0 0.00 0.00 0.00 47 1011.0
20260501192553 63 326 2.0 3.0 0.00 0.00 0.00 47 1011.0
20260501192052 63 175 3.0 6.0 0.00 0.00 0.00 47 1011.0
20260501191553 63 187 2.0 4.0 0.00 0.00 0.00 48 1011.0
20260501191053 62 284 2.0 3.0 0.00 0.00 0.00 49 1011.0
20260501190553 62 247 1.0 3.0 0.00 0.00 0.00 47 1011.0
20260501190052 61 19 3.0 4.0 0.00 0.00 0.00 50 1011.0
20260501185552 61 116 2.0 4.0 0.00 0.00 0.00 49 1011.0
20260501185052 62 292 1.0 2.0 0.00 0.00 0.00 49 1011.0
20260501184553 62 318 1.0 2.0 0.00 0.00 0.00 46 1011.0
20260501184053 62 290 2.0 4.0 0.00 0.00 0.00 48 1011.0
20260501183552 61 333 0.0 1.0 0.00 0.00 0.00 49 1011.0
20260501183055 61 174 2.0 3.0 0.00 0.00 0.00 46 1011.0
20260501182553 60 169 1.0 3.0 0.00 0.00 0.00 48 1011.0
20260501182053 60 203 1.0 2.0 0.00 0.00 0.00 48 1011.0
20260501181553 60 225 2.0 3.0 0.00 0.00 0.00 48 1011.0
20260501181054 61 305 1.0 3.0 0.00 0.00 0.00 49 1011.0
20260501180552 60 200 1.0 2.0 0.00 0.00 0.00 50 1011.0
20260501180053 61 143 1.0 3.0 0.00 0.00 0.00 47 1011.0
20260501175552 61 196 3.0 5.0 0.00 0.00 0.00 48 1011.0
20260501175052 60 252 1.0 3.0 0.00 0.00 0.00 48 1012.0
20260501174554 60 214 2.0 4.0 0.00 0.00 0.00 49 1012.0
20260501174052 60 259 1.0 4.0 0.00 0.00 0.00 49 1012.0
20260501173553 60 290 1.0 2.0 0.00 0.00 0.00 50 1012.0
20260501173053 60 282 2.0 3.0 0.00 0.00 0.00 48 1012.0
20260501172552 60 318 1.0 3.0 0.00 0.00 0.00 50 1012.0
20260501172053 59 203 0.0 1.0 0.00 0.00 0.00 49 1012.0
20260501171552 59 192 4.0 5.0 0.00 0.00 0.00 51 1012.0
20260501171054 59 168 2.0 6.0 0.00 0.00 0.00 50 1012.0
20260501170552 58 69 1.0 3.0 0.00 0.00 0.00 48 1012.0
20260501170053 58 203 2.0 3.0 0.00 0.00 0.00 47 1012.0
20260501165553 58 284 1.0 2.0 0.00 0.00 0.00 50 1012.0
20260501165053 58 159 2.0 4.0 0.00 0.00 0.00 47 1012.0
20260501164552 58 233 1.0 2.0 0.00 0.00 0.00 47 1012.0